Meteo orario Zagroby

Oggi, 29 Luglio, Giovedi

Tempo Temperatura Precipitazioni Vento Pressione Umidità
00:00 +20°C° 1.9 mm 3 m/s 749 mm Hg 94%
01:00 +19°C° 1.9 mm 2 m/s 749 mm Hg 95%
02:00 +19°C° 0.5 mm 2 m/s 749 mm Hg 95%
03:00 +19°C° 0.5 mm 2 m/s 749 mm Hg 95%
04:00 +19°C° 0.5 mm 2 m/s 749 mm Hg 94%
05:00 +20°C° 0 mm 3 m/s 750 mm Hg 90%
06:00 +20°C° 0 mm 3 m/s 750 mm Hg 86%
07:00 +21°C° 0 mm 4 m/s 750 mm Hg 82%
08:00 +22°C° 0 mm 4 m/s 750 mm Hg 73%
09:00 +25°C° 0 mm 4 m/s 750 mm Hg 65%
10:00 +26°C° 0 mm 4 m/s 750 mm Hg 56%
11:00 +27°C° 0 mm 5 m/s 750 mm Hg 52%
12:00 +28°C° 0 mm 5 m/s 750 mm Hg 49%
13:00 +29°C° 0 mm 5 m/s 750 mm Hg 45%
14:00 +28°C° 0 mm 4 m/s 750 mm Hg 49%
15:00 +27°C° 0 mm 4 m/s 750 mm Hg 54%
16:00 +26°C° 0 mm 3 m/s 750 mm Hg 58%
17:00 +25°C° 0 mm 3 m/s 749 mm Hg 61%
18:00 +24°C° 0 mm 3 m/s 749 mm Hg 63%
19:00 +23°C° 0 mm 2 m/s 749 mm Hg 66%
20:00 +21°C° 0 mm 2 m/s 750 mm Hg 67%
21:00 +21°C° 0 mm 2 m/s 750 mm Hg 67%
22:00 +20°C° 0 mm 3 m/s 750 mm Hg 68%
23:00 +20°C° 0 mm 2 m/s 750 mm Hg 68%

Domani, 30 Luglio, Venerdi

Tempo Temperatura Precipitazioni Vento Pressione Umidità
00:00 +19°C° 0 mm 2 m/s 750 mm Hg 67%
01:00 +20°C° 0 mm 1 m/s 750 mm Hg 67%
02:00 +19°C° 0 mm 2 m/s 750 mm Hg 66%
03:00 +19°C° 0 mm 2 m/s 750 mm Hg 64%
04:00 +19°C° 0 mm 2 m/s 750 mm Hg 63%
05:00 +20°C° 0 mm 2 m/s 750 mm Hg 62%
06:00 +21°C° 0 mm 2 m/s 750 mm Hg 60%
07:00 +23°C° 0 mm 2 m/s 750 mm Hg 59%
08:00 +24°C° 0 mm 3 m/s 750 mm Hg 55%
09:00 +25°C° 0 mm 3 m/s 750 mm Hg 51%
10:00 +27°C° 0 mm 4 m/s 749 mm Hg 47%
11:00 +27°C° 0 mm 4 m/s 749 mm Hg 44%
12:00 +28°C° 0 mm 5 m/s 749 mm Hg 41%
13:00 +29°C° 0 mm 5 m/s 748 mm Hg 38%
14:00 +29°C° 0 mm 5 m/s 748 mm Hg 38%
15:00 +29°C° 0 mm 5 m/s 748 mm Hg 38%
16:00 +29°C° 0 mm 5 m/s 748 mm Hg 39%
17:00 +27°C° 0 mm 4 m/s 747 mm Hg 45%
18:00 +25°C° 0 mm 3 m/s 747 mm Hg 52%
19:00 +24°C° 0 mm 2 m/s 747 mm Hg 59%
20:00 +23°C° 0 mm 2 m/s 747 mm Hg 59%
21:00 +21°C° 0 mm 2 m/s 748 mm Hg 60%
22:00 +21°C° 0 mm 1 m/s 748 mm Hg 60%
23:00 +21°C° 0 mm 1 m/s 748 mm Hg 61%

Dopodomani, 31 Luglio, Sabato

Tempo Temperatura Precipitazioni Vento Pressione Umidità
00:00 +20°C° 0 mm 1 m/s 748 mm Hg 63%
01:00 +20°C° 0 mm 1 m/s 747 mm Hg 64%
02:00 +20°C° 0 mm 1 m/s 747 mm Hg 65%
03:00 +19°C° 0 mm 2 m/s 747 mm Hg 66%
04:00 +19°C° 0 mm 2 m/s 747 mm Hg 67%
05:00 +20°C° 0 mm 2 m/s 747 mm Hg 64%
06:00 +23°C° 0 mm 2 m/s 747 mm Hg 61%
07:00 +24°C° 0 mm 2 m/s 747 mm Hg 58%
08:00 +26°C° 0 mm 2 m/s 747 mm Hg 54%
09:00 +28°C° 0 mm 3 m/s 747 mm Hg 50%
10:00 +30°C° 0 mm 3 m/s 746 mm Hg 46%
11:00 +28°C° 0.3 mm 4 m/s 747 mm Hg 56%
12:00 +26°C° 0.3 mm 5 m/s 747 mm Hg 67%
13:00 +23°C° 0.3 mm 7 m/s 747 mm Hg 77%
14:00 +22°C° 0.7 mm 5 m/s 747 mm Hg 80%
15:00 +21°C° 0.7 mm 4 m/s 747 mm Hg 83%
16:00 +21°C° 0.7 mm 3 m/s 747 mm Hg 85%
17:00 +21°C° 0.1 mm 3 m/s 746 mm Hg 86%
18:00 +21°C° 0.1 mm 3 m/s 746 mm Hg 86%
19:00 +21°C° 0.1 mm 3 m/s 746 mm Hg 87%
20:00 +20°C° 0 mm 3 m/s 747 mm Hg 87%
21:00 +19°C° 0 mm 3 m/s 747 mm Hg 87%
22:00 +19°C° 0 mm 3 m/s 747 mm Hg 87%
23:00 +18°C° 0 mm 3 m/s 747 mm Hg 84%

1 Agosto, Domenica

Tempo Temperatura Precipitazioni Vento Pressione Umidità
00:00 +17°C° 0 mm 3 m/s 747 mm Hg 81%
01:00 +17°C° 0 mm 2 m/s 748 mm Hg 78%
02:00 +17°C° 0 mm 2 m/s 748 mm Hg 77%
03:00 +16°C° 0 mm 2 m/s 748 mm Hg 76%
04:00 +16°C° 0 mm 2 m/s 748 mm Hg 76%
05:00 +17°C° 0 mm 2 m/s 748 mm Hg 70%
06:00 +20°C° 0 mm 1 m/s 748 mm Hg 65%
07:00 +22°C° 0 mm 1 m/s 748 mm Hg 59%
08:00 +23°C° 0 mm 1 m/s 748 mm Hg 54%
09:00 +25°C° 0 mm 1 m/s 748 mm Hg 49%
10:00 +26°C° 0 mm 1 m/s 748 mm Hg 45%
11:00 +25°C° 0 mm 2 m/s 747 mm Hg 50%
12:00 +24°C° 0 mm 2 m/s 747 mm Hg 55%
13:00 +24°C° 0 mm 2 m/s 747 mm Hg 60%
14:00 +22°C° 0.2 mm 3 m/s 747 mm Hg 66%
15:00 +20°C° 0.2 mm 4 m/s 746 mm Hg 72%
16:00 +19°C° 0.2 mm 4 m/s 746 mm Hg 79%
17:00 +19°C° 1 mm 4 m/s 746 mm Hg 83%
18:00 +17°C° 1 mm 5 m/s 746 mm Hg 87%
19:00 +16°C° 1 mm 5 m/s 746 mm Hg 92%
20:00 +17°C° 0.9 mm 4 m/s 746 mm Hg 93%
21:00 +17°C° 0.9 mm 4 m/s 746 mm Hg 93%
22:00 +17°C° 0.9 mm 3 m/s 746 mm Hg 94%
23:00 +17°C° 0.9 mm 3 m/s 746 mm Hg 94%

2 Agosto, Lunedi

Tempo Temperatura Precipitazioni Vento Pressione Umidità
00:00 +16°C° 0.9 mm 3 m/s 746 mm Hg 93%
01:00 +16°C° 0.9 mm 3 m/s 746 mm Hg 92%
02:00 +16°C° 0.1 mm 3 m/s 746 mm Hg 92%
03:00 +16°C° 0.1 mm 3 m/s 746 mm Hg 93%
04:00 +14°C° 0.1 mm 3 m/s 746 mm Hg 93%
05:00 +14°C° 2 mm 4 m/s 746 mm Hg 94%
06:00 +14°C° 2 mm 5 m/s 747 mm Hg 95%
07:00 +14°C° 2 mm 5 m/s 747 mm Hg 96%
08:00 +15°C° 0.9 mm 5 m/s 748 mm Hg 90%
09:00 +17°C° 0.9 mm 4 m/s 748 mm Hg 84%
10:00 +18°C° 0.9 mm 3 m/s 748 mm Hg 79%
11:00 +19°C° 0.2 mm 3 m/s 748 mm Hg 72%
12:00 +21°C° 0.2 mm 4 m/s 748 mm Hg 64%
13:00 +22°C° 0.2 mm 4 m/s 748 mm Hg 57%
14:00 +22°C° 0.4 mm 4 m/s 748 mm Hg 61%
15:00 +22°C° 0.4 mm 4 m/s 749 mm Hg 65%
16:00 +21°C° 0.4 mm 4 m/s 749 mm Hg 68%
17:00 +20°C° 0.2 mm 3 m/s 749 mm Hg 72%
18:00 +19°C° 0.2 mm 3 m/s 749 mm Hg 76%
19:00 +18°C° 0.2 mm 3 m/s 749 mm Hg 80%
20:00 +18°C° 0.2 mm 3 m/s 749 mm Hg 84%
21:00 +17°C° 0.2 mm 3 m/s 749 mm Hg 87%
22:00 +16°C° 0.2 mm 3 m/s 749 mm Hg 90%
23:00 +16°C° 0 mm 3 m/s 750 mm Hg 91%

3 Agosto, Martedi

Tempo Temperatura Precipitazioni Vento Pressione Umidità
00:00 +14°C° 0 mm 3 m/s 750 mm Hg 92%
01:00 +14°C° 0 mm 3 m/s 750 mm Hg 93%
02:00 +15°C° 0 mm 2 m/s 750 mm Hg 93%
03:00 +15°C° 0 mm 2 m/s 750 mm Hg 93%
04:00 +14°C° 0 mm 2 m/s 750 mm Hg 93%
05:00 +16°C° 0 mm 2 m/s 751 mm Hg 88%
06:00 +17°C° 0 mm 2 m/s 751 mm Hg 82%
07:00 +18°C° 0 mm 2 m/s 751 mm Hg 76%
08:00 +20°C° 0 mm 2 m/s 751 mm Hg 67%
09:00 +21°C° 0 mm 2 m/s 751 mm Hg 58%
10:00 +24°C° 0 mm 3 m/s 751 mm Hg 50%
11:00 +24°C° 0 mm 3 m/s 751 mm Hg 49%
12:00 +25°C° 0 mm 2 m/s 751 mm Hg 48%
13:00 +25°C° 0 mm 2 m/s 750 mm Hg 48%
14:00 +25°C° 0 mm 2 m/s 750 mm Hg 50%
15:00 +24°C° 0 mm 2 m/s 750 mm Hg 53%
16:00 +24°C° 0 mm 1 m/s 750 mm Hg 55%
17:00 +23°C° 0 mm 1 m/s 750 mm Hg 58%
18:00 +22°C° 0 mm 1 m/s 750 mm Hg 61%
19:00 +21°C° 0 mm 1 m/s 750 mm Hg 64%
20:00 +20°C° 0 mm 1 m/s 750 mm Hg 67%
21:00 +18°C° 0 mm 2 m/s 750 mm Hg 70%
22:00 +17°C° 0 mm 2 m/s 750 mm Hg 73%
23:00 +17°C° 0 mm 2 m/s 750 mm Hg 76%
Mostrare altro

Abbiamo bisogno del tuo consenso

Meteoprog e i nostri fornitori di servizi possono memorizzare e accedere a dati personali come cookie, identificatori di dispositivi o altre tecnologie simili sul tuo dispositivo e possono elaborare tali dati per personalizzare i contenuti e gli annunci, nonché fornire funzionalità dei social media e analizzarne il traffico.

  • Archiviare e/o accedere alle informazioni sul tuo dispositivo

    Cookie, identificatori di dispositivi o altre informazioni possono essere memorizzati o resi accessibili sul tuo dispositivo per le finalità sopra indicate.

  • Annunci e contenuti personalizzati, misurazione di annunci e contenuti, approfondimenti sul pubblico e sviluppo di prodotti

    Gli annunci e i contenuti possono essere personalizzati in base a un profilo. È possibile aggiungere più dati per personalizzare meglio annunci e contenuti. È possibile misurare il rendimento degli annunci e dei contenuti. È possibile ricavare informazioni sul pubblico che ha visto gli annunci e i contenuti. Tali dati possono essere utilizzati per sviluppare o migliorare l'esperienza, i sistemi e il software dell'utente.

Cliccando su “Accetto”, acconsenti all'uso di cookie, identificatori di dispositivo, web beacon o altre tecnologie simili. Puoi modificare le impostazioni nel browser del tuo dispositivo.

Per determinati scopi, è possibile fare affidamento su interessi legali, piuttosto che sul consenso. Puoi approfondire questo argomento consultando la nostra Informativa sulla privacy e sui cookie.